User: anonymous   Login
Location: State Camp
(41.2367°N, 77.7828°W)
Time: 23:17:16
(UTC-04:00)
Language:

Cosmos 1674 Rocket - Orbit

View from above orbital plane
View from above orbital plane
View from above satellite
View from above satellite

Ground track
Ground track

The orbit data is extracted from the following two-line orbital elements,

1 15945U 85069B   16145.07070961  .00000120  00000-0  11462-4 0  9990
2 15945  82.5260 137.4129 0021136 123.7270 236.5963 14.83857600663327
Epoch (UTC): 24 May 2016 01:41:49
Eccentricity: 0.0021136
inclination: 82.5260°
perigee height: 602 km
apogee height: 632 km
right ascension of ascending node: 137.4129°
argument of perigee: 123.7270°
revolutions per day: 14.83857600
mean anomaly at epoch: 236.5963°
orbit number at epoch: 66332

The dashed part of the orbit path shows where the satellite is in the earth's shadow,  

DLR